When you browse on this site, cookies collect data to enhance your experience and personalize the content and advertising you see.
Visit our Privacy Policy to learn more. By continuing to use the site, you agree to this use of cookies and data.
  • In Österreich
  • Länderverzeichnis
  • Für 7 Tage
  • Wassertemperatur
  • Wetterkarte
  • News
  • Widgets
  • user-avatar
    Anmelden

    Stündliche Wetter Darwin

    Heute, 22 Oktober, Dienstag

    Zeit Temperatur Niederschläge Wind Luftdruck Luftfeuchtigkeit
    00:00 +27°C° 0 mm 3 m/S 758 mmHg 87%
    01:00 +26°C° 0 mm 2 m/S 758 mmHg 88%
    02:00 +26°C° 0 mm 2 m/S 757 mmHg 88%
    03:00 +26°C° 0 mm 1 m/S 757 mmHg 88%
    04:00 +25°C° 0 mm 2 m/S 757 mmHg 90%
    05:00 +25°C° 0 mm 2 m/S 758 mmHg 92%
    06:00 +24°C° 0 mm 3 m/S 758 mmHg 94%
    07:00 +28°C° 0 mm 2 m/S 758 mmHg 76%
    08:00 +31°C° 0 mm 2 m/S 758 mmHg 58%
    09:00 +35°C° 0 mm 1 m/S 759 mmHg 36%
    10:00 +38°C° 0 mm 3 m/S 758 mmHg 29%
    11:00 +41°C° 0 mm 4 m/S 757 mmHg 22%
    12:00 +42°C° 0 mm 5 m/S 757 mmHg 15%
    13:00 +42°C° 0 mm 5 m/S 756 mmHg 18%
    14:00 +41°C° 0 mm 5 m/S 756 mmHg 21%
    15:00 +40°C° 0 mm 5 m/S 755 mmHg 26%
    16:00 +38°C° 0 mm 6 m/S 755 mmHg 32%
    17:00 +35°C° 0 mm 6 m/S 755 mmHg 39%
    18:00 +33°C° 0 mm 6 m/S 756 mmHg 45%
    19:00 +30°C° 0 mm 5 m/S 756 mmHg 54%
    20:00 +29°C° 0 mm 5 m/S 757 mmHg 63%
    21:00 +27°C° 0 mm 4 m/S 758 mmHg 71%
    22:00 +27°C° 0 mm 3 m/S 758 mmHg 75%
    23:00 +27°C° 0 mm 2 m/S 758 mmHg 78%

    Morgen, 23 Oktober, Mittwoch

    Zeit Temperatur Niederschläge Wind Luftdruck Luftfeuchtigkeit
    00:00 +26°C° 0 mm 1 m/S 758 mmHg 81%
    01:00 +26°C° 0 mm 1 m/S 758 mmHg 82%
    02:00 +26°C° 0 mm 2 m/S 758 mmHg 83%
    03:00 +25°C° 0 mm 2 m/S 758 mmHg 84%
    04:00 +25°C° 0 mm 2 m/S 758 mmHg 85%
    05:00 +25°C° 0 mm 2 m/S 758 mmHg 86%
    06:00 +25°C° 0 mm 2 m/S 758 mmHg 88%
    07:00 +28°C° 0 mm 2 m/S 758 mmHg 72%
    08:00 +31°C° 0 mm 3 m/S 759 mmHg 57%
    09:00 +35°C° 0 mm 3 m/S 759 mmHg 42%
    10:00 +37°C° 0 mm 4 m/S 759 mmHg 36%
    11:00 +39°C° 0 mm 5 m/S 758 mmHg 30%
    12:00 +41°C° 0 mm 6 m/S 757 mmHg 24%
    13:00 +41°C° 0 mm 6 m/S 757 mmHg 24%
    14:00 +42°C° 0 mm 6 m/S 756 mmHg 24%
    15:00 +42°C° 0 mm 6 m/S 755 mmHg 24%
    16:00 +39°C° 0 mm 6 m/S 755 mmHg 33%
    17:00 +36°C° 0 mm 6 m/S 755 mmHg 42%
    18:00 +33°C° 0 mm 6 m/S 755 mmHg 51%
    19:00 +32°C° 0 mm 5 m/S 756 mmHg 58%
    20:00 +30°C° 0 mm 4 m/S 757 mmHg 66%
    21:00 +28°C° 0 mm 3 m/S 758 mmHg 74%
    22:00 +28°C° 0.2 mm 2 m/S 758 mmHg 77%
    23:00 +27°C° 0.2 mm 2 m/S 758 mmHg 81%

    übermorgen, 24 Oktober, Donnerstag

    Zeit Temperatur Niederschläge Wind Luftdruck Luftfeuchtigkeit
    00:00 +26°C° 0.2 mm 1 m/S 758 mmHg 84%
    01:00 +26°C° 0 mm 2 m/S 758 mmHg 85%
    02:00 +26°C° 0 mm 2 m/S 757 mmHg 85%
    03:00 +25°C° 0 mm 2 m/S 757 mmHg 85%
    04:00 +25°C° 0 mm 2 m/S 757 mmHg 85%
    05:00 +25°C° 0 mm 3 m/S 758 mmHg 85%
    06:00 +25°C° 0 mm 3 m/S 758 mmHg 85%
    07:00 +27°C° 0 mm 3 m/S 758 mmHg 72%
    08:00 +30°C° 0 mm 3 m/S 759 mmHg 59%
    09:00 +34°C° 0 mm 3 m/S 759 mmHg 46%
    10:00 +36°C° 0 mm 4 m/S 759 mmHg 39%
    11:00 +39°C° 0 mm 5 m/S 758 mmHg 31%
    12:00 +41°C° 0 mm 6 m/S 758 mmHg 24%
    13:00 +41°C° 0 mm 6 m/S 757 mmHg 24%
    14:00 +41°C° 0 mm 6 m/S 756 mmHg 24%
    15:00 +43°C° 0 mm 7 m/S 755 mmHg 24%
    16:00 +39°C° 0 mm 6 m/S 755 mmHg 32%
    17:00 +36°C° 0 mm 6 m/S 755 mmHg 40%
    18:00 +33°C° 0 mm 5 m/S 756 mmHg 48%
    19:00 +32°C° 0.3 mm 4 m/S 756 mmHg 57%
    20:00 +30°C° 0.3 mm 4 m/S 757 mmHg 66%
    21:00 +28°C° 0.3 mm 3 m/S 758 mmHg 74%
    22:00 +28°C° 0.1 mm 2 m/S 758 mmHg 77%
    23:00 +27°C° 0.1 mm 2 m/S 758 mmHg 80%

    25 Oktober, Freitag

    Zeit Temperatur Niederschläge Wind Luftdruck Luftfeuchtigkeit
    00:00 +27°C° 0.1 mm 1 m/S 758 mmHg 83%
    01:00 +26°C° 0 mm 1 m/S 758 mmHg 84%
    02:00 +26°C° 0 mm 2 m/S 758 mmHg 85%
    03:00 +26°C° 0 mm 2 m/S 757 mmHg 85%
    04:00 +26°C° 0 mm 2 m/S 758 mmHg 85%
    05:00 +26°C° 0 mm 2 m/S 758 mmHg 86%
    06:00 +25°C° 0 mm 1 m/S 758 mmHg 86%
    07:00 +29°C° 0 mm 1 m/S 758 mmHg 73%
    08:00 +32°C° 0 mm 1 m/S 759 mmHg 59%
    09:00 +36°C° 0 mm 1 m/S 759 mmHg 46%
    10:00 +37°C° 0 mm 1 m/S 759 mmHg 42%
    11:00 +39°C° 0 mm 2 m/S 758 mmHg 38%
    12:00 +40°C° 0 mm 3 m/S 758 mmHg 34%
    13:00 +39°C° 0.1 mm 3 m/S 757 mmHg 39%
    14:00 +37°C° 0.1 mm 4 m/S 756 mmHg 45%
    15:00 +35°C° 0.1 mm 4 m/S 755 mmHg 50%
    16:00 +34°C° 0 mm 4 m/S 756 mmHg 51%
    17:00 +33°C° 0 mm 4 m/S 756 mmHg 52%
    18:00 +33°C° 0 mm 3 m/S 756 mmHg 53%
    19:00 +30°C° 0.1 mm 3 m/S 756 mmHg 61%
    20:00 +29°C° 0.1 mm 3 m/S 756 mmHg 69%
    21:00 +28°C° 0.1 mm 2 m/S 757 mmHg 77%
    22:00 +28°C° 0 mm 2 m/S 757 mmHg 78%
    23:00 +28°C° 0 mm 2 m/S 757 mmHg 78%

    26 Oktober, Samstag

    Zeit Temperatur Niederschläge Wind Luftdruck Luftfeuchtigkeit
    00:00 +28°C° 0 mm 2 m/S 757 mmHg 78%
    01:00 +28°C° 0.1 mm 2 m/S 757 mmHg 79%
    02:00 +27°C° 0.1 mm 2 m/S 757 mmHg 81%
    03:00 +27°C° 0.1 mm 2 m/S 757 mmHg 82%
    04:00 +27°C° 0.7 mm 2 m/S 757 mmHg 83%
    05:00 +27°C° 0.7 mm 1 m/S 757 mmHg 84%
    06:00 +26°C° 0.7 mm 1 m/S 757 mmHg 86%
    07:00 +29°C° 0 mm 1 m/S 758 mmHg 74%
    08:00 +31°C° 0 mm 1 m/S 758 mmHg 63%
    09:00 +34°C° 0 mm 2 m/S 758 mmHg 52%
    10:00 +36°C° 0 mm 2 m/S 758 mmHg 46%
    11:00 +38°C° 0 mm 3 m/S 757 mmHg 40%
    12:00 +40°C° 0 mm 3 m/S 757 mmHg 34%
    13:00 +40°C° 0 mm 4 m/S 756 mmHg 38%
    14:00 +37°C° 0 mm 5 m/S 755 mmHg 43%
    15:00 +36°C° 0 mm 5 m/S 755 mmHg 48%
    16:00 +35°C° 0 mm 5 m/S 755 mmHg 50%
    17:00 +34°C° 0 mm 5 m/S 755 mmHg 53%
    18:00 +33°C° 0 mm 4 m/S 755 mmHg 55%
    19:00 +32°C° 0.2 mm 4 m/S 755 mmHg 58%
    20:00 +31°C° 0.2 mm 3 m/S 756 mmHg 60%
    21:00 +30°C° 0.2 mm 2 m/S 756 mmHg 63%
    22:00 +29°C° 0 mm 3 m/S 756 mmHg 66%
    23:00 +29°C° 0 mm 3 m/S 756 mmHg 70%

    27 Oktober, Sonntag

    Zeit Temperatur Niederschläge Wind Luftdruck Luftfeuchtigkeit
    00:00 +28°C° 0 mm 3 m/S 756 mmHg 73%
    01:00 +28°C° 0.1 mm 3 m/S 756 mmHg 76%
    02:00 +28°C° 0.1 mm 3 m/S 756 mmHg 79%
    03:00 +27°C° 0.1 mm 2 m/S 756 mmHg 82%
    04:00 +27°C° 0.9 mm 2 m/S 756 mmHg 82%
    05:00 +27°C° 0.9 mm 2 m/S 756 mmHg 81%
    06:00 +27°C° 0.9 mm 2 m/S 757 mmHg 80%
    07:00 +29°C° 0 mm 2 m/S 757 mmHg 70%
    08:00 +32°C° 0 mm 2 m/S 757 mmHg 59%
    09:00 +35°C° 0 mm 2 m/S 757 mmHg 48%
    10:00 +36°C° 0 mm 2 m/S 757 mmHg 45%
    11:00 +37°C° 0 mm 3 m/S 756 mmHg 41%
    12:00 +38°C° 0 mm 3 m/S 756 mmHg 38%
    13:00 +37°C° 0 mm 3 m/S 755 mmHg 40%
    14:00 +37°C° 0 mm 3 m/S 755 mmHg 42%
    15:00 +36°C° 0 mm 4 m/S 754 mmHg 45%
    16:00 +35°C° 0 mm 4 m/S 754 mmHg 48%
    17:00 +34°C° 0 mm 4 m/S 754 mmHg 51%
    18:00 +33°C° 0 mm 4 m/S 755 mmHg 55%
    19:00 +32°C° 0 mm 4 m/S 755 mmHg 60%
    20:00 +30°C° 0 mm 4 m/S 756 mmHg 66%
    21:00 +29°C° 0 mm 3 m/S 757 mmHg 72%
    22:00 +29°C° 1.2 mm 2 m/S 757 mmHg 74%
    23:00 +28°C° 1.2 mm 2 m/S 757 mmHg 77%

    28 Oktober, Montag

    Zeit Temperatur Niederschläge Wind Luftdruck Luftfeuchtigkeit
    00:00 +28°C° 1.2 mm 1 m/S 757 mmHg 79%
    01:00 +27°C° 0.1 mm 1 m/S 756 mmHg 79%
    02:00 +27°C° 0.1 mm 2 m/S 756 mmHg 79%
    03:00 +27°C° 0.1 mm 2 m/S 756 mmHg 79%
    04:00 +27°C° 0.3 mm 2 m/S 756 mmHg 80%
    05:00 +27°C° 0.3 mm 1 m/S 756 mmHg 80%
    06:00 +27°C° 0.3 mm 1 m/S 756 mmHg 81%
    07:00 +28°C° 0 mm 0 m/S 757 mmHg 70%
    08:00 +30°C° 0 mm 0 m/S 757 mmHg 59%
    09:00 +33°C° 0 mm 0 m/S 757 mmHg 48%
    10:00 +36°C° 0 mm 1 m/S 757 mmHg 43%
    11:00 +38°C° 0 mm 2 m/S 756 mmHg 39%
    12:00 +40°C° 0 mm 2 m/S 756 mmHg 34%
    13:00 +39°C° 0 mm 3 m/S 755 mmHg 37%
    14:00 +38°C° 0 mm 3 m/S 754 mmHg 39%
    15:00 +37°C° 0 mm 4 m/S 754 mmHg 42%
    16:00 +36°C° 0 mm 4 m/S 754 mmHg 46%
    17:00 +35°C° 0 mm 4 m/S 754 mmHg 50%
    18:00 +33°C° 0 mm 4 m/S 754 mmHg 54%
    19:00 +33°C° 0 mm 4 m/S 755 mmHg 59%
    20:00 +31°C° 0 mm 3 m/S 755 mmHg 64%
    21:00 +30°C° 0 mm 2 m/S 756 mmHg 70%
    22:00 +29°C° 0.4 mm 2 m/S 756 mmHg 72%
    23:00 +29°C° 0.4 mm 2 m/S 756 mmHg 74%
    Mehr zeigen